EW9688 Weather Reports


Display with metric or nautical units.
time (UTC)temp
F
wind
direction
speed
MPH
gust
MPH
rain 1hr
in
rain 24hr
in
rain mn
in
humidity
%
barometer
mb
20260508181218 59 223 1.0 3.0 0.00 0.00 0.00 52 1016.2
20260508180219 59 8 4.0 7.0 0.00 0.00 0.00 51 1016.2
20260508175251 58 354 2.0 3.0 0.00 0.00 0.00 52 1016.3
20260508174219 58 344 2.0 2.0 0.00 0.00 0.00 54 1016.3
20260508173224 58 121 3.0 6.0 0.00 0.00 0.00 54 1016.3
20260508172239 57 1 3.0 4.0 0.00 0.00 0.00 54 1016.5
20260508171231 57 2 3.0 4.0 0.00 0.00 0.00 53 1016.4
20260508170231 57 126 3.0 6.0 0.00 0.00 0.00 54 1016.5
20260508165219 56 29 4.0 7.0 0.00 0.00 0.00 58 1016.6
20260508164232 56 16 4.0 7.0 0.00 0.00 0.00 59 1016.5
20260508163232 56 49 3.0 5.0 0.00 0.00 0.00 60 1016.5
20260508162220 56 16 5.0 7.0 0.00 0.00 0.00 61 1016.6
20260508161240 56 38 3.0 5.0 0.00 0.00 0.00 61 1016.5
20260508160221 56 137 3.0 5.0 0.00 0.00 0.00 59 1016.5
20260508155232 55 102 3.0 6.0 0.00 0.00 0.00 60 1016.5
20260508154233 54 176 5.0 7.0 0.00 0.00 0.00 63 1016.5
20260508153233 54 162 6.0 7.0 0.00 0.00 0.00 62 1016.3
20260508152233 54 162 4.0 8.0 0.00 0.00 0.00 62 1016.3
20260508151233 53 186 4.0 6.0 0.00 0.00 0.00 65 1016.5
20260508150221 0 165 8.0 9.0 0.00 0.00 0.00
20260508145221 52 137 6.0 8.0 0.00 0.00 0.00 68 1016.7
20260508144222 0 169 6.0 6.0 0.00 0.00 0.00
20260508143222 51 166 4.0 6.0 0.00 0.00 0.00 69 1017.0
20260508142222 51 187 5.0 7.0 0.00 0.00 0.00 70 1017.1
20260508141243 0 198 5.0 8.0 0.00 0.00 0.00
20260508140227 50 196 3.0 4.0 0.00 0.00 0.00 73 1017.3
20260508135227 49 275 1.0 1.0 0.00 0.00 0.00 74 1017.3
20260508134227 48 189 4.0 4.0 0.00 0.00 0.00 78 1017.2
20260508133247 47 269 1.0 1.0 0.00 0.00 0.00 81 1017.3
20260508132227 46 283 2.0 3.0 0.00 0.00 0.00 85 1017.3
20260508131217 0 267 3.0 4.0 0.00 0.00 0.00
20260508130239 44 296 4.0 5.0 0.00 0.00 0.00 87 1017.3
20260508125300 44 260 3.0 3.0 0.00 0.00 0.00 87 1017.4
20260508124229 43 22 4.0 5.0 0.00 0.00 0.00 87 1017.6
20260508123223 43 26 4.0 6.0 0.00 0.00 0.00 87 1017.6
20260508122228 43 346 2.0 3.0 0.00 0.00 0.00 87 1017.3
20260508121238 43 339 2.0 3.0 0.00 0.00 0.00 88 1016.9
20260508120248 42 85 2.0 3.0 0.00 0.00 0.00 89 1016.6
20260508115229 42 87 2.0 2.0 0.00 0.00 0.00 88 1016.4
20260508114219 42 140 2.0 3.0 0.00 0.00 0.00 88 1016.3
20260508113320 41 183 3.0 3.0 0.00 0.00 0.00 88 1016.2
20260508112229 41 206 2.0 2.0 0.00 0.00 0.00 88 1016.1
20260508111234 41 175 2.0 3.0 0.00 0.00 0.00 87 1016.1
20260508110220 0 200 4.0 9.0 0.00 0.00 0.00
20260508105219 0 200 5.0 11.0 0.00 0.00 0.00
20260508104219 0 52 11.0 15.0 0.00 0.00 0.00
20260508103240 41 100 6.0 15.0 0.00 0.00 0.00 87 1015.6
20260508102252 42 136 2.0 3.0 0.00 0.00 0.00 87 1015.1
20260508101230 42 125 3.0 3.0 0.00 0.00 0.00 87 1015.1
20260508100217 41 195 2.0 3.0 0.00 0.00 0.00 88 1015.2
20260508095217 41 201 2.0 3.0 0.00 0.00 0.00 87 1015.3
20260508094217 41 338 4.0 5.0 0.00 0.00 0.00 88 1015.4
20260508093217 42 179 3.0 4.0 0.00 0.00 0.00 87 1015.4
20260508092238 42 121 2.0 3.0 0.00 0.00 0.00 87 1015.4
20260508091218 43 307 3.0 3.0 0.00 0.00 0.00 86 1015.6
20260508090223 43 353 3.0 3.0 0.00 0.00 0.00 85 1015.4
20260508085229 42 299 3.0 3.0 0.00 0.00 0.00 86 1015.6
20260508084230 43 350 3.0 3.0 0.00 0.00 0.00 85 1015.6
20260508083229 43 354 2.0 3.0 0.00 0.00 0.00 84 1015.7
20260508082230 44 342 2.0 3.0 0.00 0.00 0.00 83 1015.8
20260508081230 44 348 3.0 5.0 0.00 0.00 0.00 82 1016.0
20260508080230 45 355 3.0 3.0 0.00 0.00 0.00 82 1015.9
20260508075231 45 317 3.0 3.0 0.00 0.00 0.00 83 1015.9
20260508074231 44 324 3.0 3.0 0.00 0.00 0.00 84 1016.3
20260508073233 44 21 2.0 3.0 0.00 0.00 0.00 82 1016.2
20260508072231 45 69 3.0 3.0 0.00 0.00 0.00 80 1016.1
20260508071248 45 329 2.0 2.0 0.00 0.00 0.00 79 1015.9
20260508070231 45 310 3.0 4.0 0.00 0.00 0.00 77 1015.9
20260508065235 45 308 4.0 5.0 0.00 0.00 0.00 79 1015.8
20260508064231 45 321 1.0 1.0 0.00 0.00 0.00 79 1015.9
20260508063232 46 302 4.0 4.0 0.00 0.00 0.00 78 1015.9
20260508062232 47 312 5.0 5.0 0.00 0.00 0.00 76 1015.7
20260508061231 47 308 4.0 4.0 0.00 0.00 0.00 77 1015.9
20260508060221 49 250 3.0 3.0 0.00 0.00 0.00 75 1015.7
20260508055232 50 224 2.0 3.0 0.00 0.00 0.00 73 1015.8
20260508054232 50 10 2.0 2.0 0.00 0.00 0.00 71 1016.2
20260508053230 50 359 3.0 4.0 0.00 0.00 0.00 69 1016.4
20260508052233 50 285 3.0 4.0 0.00 0.00 0.00 70 1015.8
20260508051234 50 243 2.0 2.0 0.00 0.00 0.00 70 1015.6
20260508050233 50 280 2.0 3.0 0.00 0.00 0.00 71 1015.5
20260508045234 50 293 1.0 2.0 0.00 0.00 0.00 71 1015.3
20260508044239 51 270 1.0 2.0 0.00 0.00 0.00 69 1015.4
20260508043234 51 184 3.0 3.0 0.00 0.00 0.00 69 1015.3
20260508042234 52 344 1.0 1.0 0.00 0.00 0.00 67 1015.4
20260508041234 53 325 2.0 3.0 0.00 0.00 0.00 60 1015.4
20260508040231 52 324 2.0 4.0 0.00 0.00 0.00 61 1015.4
20260508035235 53 295 3.0 3.0 0.00 0.00 0.00 59 1015.2
20260508034235 53 287 3.0 3.0 0.00 0.00 0.00 59 1015.1
20260508033234 53 258 1.0 1.0 0.00 0.00 0.00 57 1014.9
20260508032235 53 266 2.0 2.0 0.00 0.00 0.00 56 1015.0
20260508031235 54 281 2.0 2.0 0.00 0.00 0.00 55 1015.1
20260508030223 54 232 2.0 3.0 0.00 0.00 0.00 55 1014.9
20260508025221 54 214 3.0 4.0 0.00 0.00 0.00 55 1014.9
20260508024221 55 234 4.0 6.0 0.00 0.00 0.00 54 1014.6
20260508023241 56 196 2.0 3.0 0.00 0.00 0.00 52 1014.6
20260508022224 57 353 2.0 3.0 0.00 0.00 0.00 47 1014.7
20260508021221 57 276 2.0 4.0 0.00 0.00 0.00 44 1014.6
20260508020224 57 196 1.0 2.0 0.00 0.00 0.00 49 1014.9
20260508015225 58 155 1.0 1.0 0.00 0.00 0.00 46 1014.4
20260508014224 59 357 1.0 1.0 0.00 0.00 0.00 42 1014.2
20260508013225 59 340 1.0 2.0 0.00 0.00 0.00 39 1013.9
20260508012225 60 12 1.0 1.0 0.00 0.00 0.00 42 1013.8
20260508011225 59 270 1.0 1.0 0.00 0.00 0.00 46 1013.7
20260508010225 61 277 1.0 2.0 0.00 0.00 0.00 39 1013.6
20260508005225 61 187 1.0 1.0 0.00 0.00 0.00 34 1013.3
20260508004227 61 267 1.0 1.0 0.00 0.00 0.00 34 1013.3
20260508003226 61 225 1.0 1.0 0.00 0.00 0.00 37 1013.2
20260508002226 61 310 3.0 4.0 0.00 0.00 0.00 37 1013.1
20260508001246 61 290 1.0 1.0 0.00 0.00 0.00 36 1013.1
20260508000227 62 277 2.0 2.0 0.00 0.00 0.00 34 1013.2
20260507235238 61 256 1.0 1.0 0.00 0.00 0.00 32 1013.2
20260507234238 61 319 1.0 1.0 0.00 0.00 0.00 33 1013.2
20260507233259 61 333 1.0 1.0 0.00 0.00 0.00 36 1013.1
20260507232238 62 296 1.0 2.0 0.00 0.00 0.00 34 1013.2
20260507231259 62 327 1.0 1.0 0.00 0.00 0.00 32 1013.2
20260507230239 62 239 1.0 1.0 0.00 0.00 0.00 32 1013.3
20260507225244 62 231 1.0 2.0 0.00 0.00 0.00 32 1013.3
20260507224239 62 270 2.0 2.0 0.00 0.00 0.00 30 1013.3
20260507223239 63 11 2.0 2.0 0.00 0.00 0.00 32 1013.2
20260507222239 62 228 0.0 0.0 0.00 0.00 0.00 31 1013.5
20260507221240 62 352 2.0 2.0 0.00 0.00 0.00 32 1013.5
20260507220300 62 287 1.0 2.0 0.00 0.00 0.00 35 1013.7
20260507215240 62 224 1.0 2.0 0.00 0.00 0.00 32 1013.8
20260507214240 63 194 1.0 2.0 0.00 0.00 0.00 31 1013.8
20260507213240 63 309 2.0 3.0 0.00 0.00 0.00 32 1014.0
20260507212241 63 273 2.0 3.0 0.00 0.00 0.00 32 1014.1
20260507211220 63 243 5.0 7.0 0.00 0.00 0.00 34 1014.4
20260507210250 63 278 2.0 2.0 0.00 0.00 0.00 36 1014.5
20260507205250 64 271 2.0 3.0 0.00 0.00 0.00 33 1014.5
20260507204221 66 4 4.0 5.0 0.00 0.00 0.00 30 1014.6
20260507203301 66 355 3.0 6.0 0.00 0.00 0.00 34 1014.6
20260507202241 65 337 4.0 5.0 0.00 0.00 0.00 31 1014.6
20260507201249 65 349 4.0 6.0 0.00 0.00 0.00 32 1014.8
20260507200232 65 348 3.0 5.0 0.00 0.00 0.00 32 1014.9
20260507195313 64 13 3.0 5.0 0.00 0.00 0.00 32 1014.9
20260507194234 63 249 2.0 4.0 0.00 0.00 0.00 37 1015.1
20260507193234 63 275 2.0 4.0 0.00 0.00 0.00 36 1015.2
20260507192228 62 216 3.0 6.0 0.00 0.00 0.00 34 1015.2
20260507191218 62 281 5.0 8.0 0.00 0.00 0.00 38 1015.3
20260507190230 60 280 5.0 12.0 0.00 0.00 0.00 36 1015.3
20260507185242 60 337 3.0 5.0 0.00 0.00 0.00 37 1015.5
20260507184253 58 288 2.0 4.0 0.00 0.00 0.00 36 1015.7
20260507183235 57 281 4.0 6.0 0.00 0.00 0.00 38 1015.7
20260507182300 57 287 2.0 2.0 0.00 0.00 0.00 35 1015.8